RH
67 67 68 68 68 69 69 69 70 69 69 67 66 67 69 70 71 73 75 78 79 80 83 85 87 90 93 96 97 98 99 100 100 99 97 97 97 96 96 97 100 100 96 91 92 94 94 96 97 94 91 90 89 90 92 91 89 87 84 82 81 82 85
63 64 64 64 65 65 65 66 67 68 69 70 69 68 69 69 70 71 72 75 76 78 81 82 83 84 86 88 90 92 95 97 98 98 97 97 97 97 96 97 99 100 98 95 93 95 96 98 99 98 96 94 91 90 92 92 90 89 86 84 82 80 79
59 60 61 61 62 62 63 63 63 65 67 69 70 69 69 70 72 73 74 76 78 80 82 82 82 84 86 86 85 86 89 92 94 95 95 95 96 97 97 96 98 99 99 98 95 94 95 96 98 98 96 94 91 89 87 86 85 86 85 84 83 79 76
54 55 56 57 57 58 59 60 60 61 63 66 69 70 71 72 73 75 76 76 78 80 84 87 88 89 91 91 88 86 86 88 90 92 93 93 94 95 95 95 96 98 98 98 97 93 91 92 93 94 95 93 90 88 85 82 79 78 79 76 74 72 70
47 48 47 48 50 51 53 56 57 57 58 61 65 69 72 75 77 78 77 77 77 79 84 91 94 96 99 99 96 93 92 90 89 91 93 93 93 94 95 94 93 95 98 99 98 94 90 89 89 89 90 90 90 88 85 83 79 76 74 70 67 64 62
40 41 41 41 42 43 45 47 49 52 53 55 58 63 68 72 75 76 77 77 77 76 79 83 86 89 94 99 100 99 99 97 94 93 93 93 93 94 95 95 94 94 97 98 99 97 92 90 89 88 87 86 87 87 84 81 78 75 73 71 68 65 62
37 37 38 38 38 39 39 39 40 45 48 49 51 55 60 64 67 69 70 71 74 76 77 77 77 77 80 87 96 100 100 100 99 98 96 94 95 93 92 94 95 94 97 99 99 97 95 92 89 89 87 84 83 84 82 79 77 73 70 68 67 66 63
38 37 37 37 37 38 38 37 36 37 42 46 45 45 53 61 64 66 65 63 65 70 73 73 73 77 83 86 91 97 100 99 99 99 98 97 97 97 96 96 97 96 97 100 101 99 96 94 92 91 90 86 83 84 83 82 80 76 71 69 68 67 65
45 44 41 39 39 38 38 38 36 35 39 40 39 48 67 82 86 85 82 74 64 61 67 72 72 78 93 99 95 93 92 89 86 82 83 89 95 99 100 98 98 100 99 100 101 99 97 95 94 91 90 89 89 89 87 86 83 79 75 73 70 69 69
55 56 53 49 46 42 41 40 38 39 38 37 52 77 92 99 100 98 98 93 81 71 71 78 77 78 92 101 100 96 90 83 76 66 68 85 96 99 102 101 99 99 100 101 100 99 98 98 96 91 89 90 90 89 89 87 85 83 80 76 73 73 73
63 64 62 60 56 50 49 46 43 45 41 41 69 98 100 98 101 101 100 100 98 92 86 86 87 89 98 102 100 99 95 90 82 66 67 86 96 92 93 99 102 101 99 100 100 100 99 99 98 94 91 89 89 89 90 90 89 88 84 82 82 82 79
67 68 68 68 65 60 58 56 52 53 48 47 73 99 100 98 101 101 100 100 100 101 97 93 88 87 92 97 100 101 99 96 86 68 64 79 90 88 84 86 94 99 101 101 99 99 100 100 99 97 94 91 90 90 92 92 92 91 89 88 88 86 84
69 71 72 73 72 69 67 64 62 62 58 58 78 96 98 99 100 99 102 102 99 100 101 96 89 79 69 71 85 98 99 94 86 73 62 62 70 80 83 78 76 81 92 100 101 100 100 99 100 100 98 98 97 95 94 92 92 93 93 93 93 90 87
73 75 76 76 77 76 74 72 70 69 66 68 81 92 94 97 99 98 100 101 100 101 100 95 92 82 62 49 57 75 86 88 85 80 71 61 59 65 70 70 66 64 73 86 94 99 101 100 101 101 100 100 100 99 97 95 94 94 95 95 95 93 89
79 80 81 81 82 82 80 78 76 75 74 74 81 89 91 94 95 95 96 98 98 100 99 94 90 81 65 51 46 58 81 94 91 86 82 79 81 81 79 76 70 66 72 78 82 87 91 91 92 94 96 97 97 98 99 100 98 97 97 97 96 94 91
77 79 80 79 81 85 86 84 83 83 81 80 82 87 89 90 91 92 93 92 90 90 90 89 85 76 66 58 49 56 82 99 96 90 88 88 90 95 95 86 76 79 88 91 91 92 92 92 93 94 96 96 95 96 98 100 101 99 99 100 99 96 91
65 68 72 75 79 87 91 90 90 90 87 85 87 91 91 89 88 90 91 91 89 88 87 84 78 70 68 64 52 53 76 96 97 92 90 88 89 94 95 82 76 87 94 88 88 90 88 91 95 96 99 100 100 101 100 100 101 99 99 101 99 96 90
72 75 80 85 88 91 94 94 93 92 92 91 93 95 95 92 90 91 93 93 91 90 91 88 79 70 71 72 61 56 72 94 101 95 89 89 92 100 97 79 73 89 96 87 83 78 69 69 72 74 78 80 85 94 99 100 101 99 99 101 99 95 91
89 93 94 97 98 96 96 96 93 92 93 92 92 96 100 99 97 97 96 95 93 92 91 90 83 75 74 76 70 65 75 93 102 99 95 94 97 103 99 85 81 91 97 93 88 78 67 64 65 68 74 74 76 85 93 97 99 98 99 102 101 99 96
99 101 99 99 100 98 96 93 89 86 83 80 81 86 93 98 101 102 100 98 98 97 95 92 89 84 79 77 75 74 81 94 101 100 99 98 100 103 98 91 91 96 98 97 91 83 80 79 77 78 83 84 83 85 88 90 91 89 87 90 95 99 99
100 100 99 97 95 93 89 86 82 79 77 77 78 79 83 92 98 100 102 103 101 102 101 96 90 86 83 83 83 80 81 90 96 97 95 94 96 100 99 97 98 99 99 100 97 94 94 91 87 85 86 85 85 83 79 76 73 71 73 78 84 91 94
100 99 98 96 93 89 86 82 79 78 77 78 80 81 82 86 89 90 97 103 103 102 100 94 88 86 84 86 91 88 86 92 96 95 93 92 91 95 100 101 100 99 100 101 100 100 100 96 93 93 91 91 90 83 75 69 66 69 76 81 83 87 91
101 100 100 99 96 92 87 83 80 80 79 78 79 82 83 82 81 81 87 98 103 102 97 90 86 86 84 87 95 98 97 99 97 90 88 89 89 92 98 101 101 101 102 102 101 102 101 99 97 96 95 92 89 82 76 73 72 74 79 83 83 85 90
101 101 102 102 100 96 92 88 86 85 84 81 81 83 83 83 81 78 79 88 96 98 94 88 86 88 91 92 97 101 102 102 99 95 93 95 96 97 99 101 101 100 100 100 100 101 100 97 96 96 97 95 91 89 86 81 77 77 79 82 83 85 89
103 102 103 103 102 100 95 92 90 90 90 88 85 83 83 84 85 81 77 80 86 89 89 85 83 89 98 101 100 100 100 97 97 99 100 100 101 102 102 102 102 101 101 101 101 101 100 98 96 96 95 93 92 92 90 85 80 80 82 82 83 85 88
104 103 103 102 101 99 97 94 92 91 90 89 87 83 81 82 83 81 79 79 84 89 90 84 78 82 91 96 96 95 94 92 94 99 102 100 99 99 99 99 99 99 101 102 101 100 100 98 96 95 93 91 91 90 89 88 87 86 85 85 86 88 88
102 102 103 102 100 99 98 97 95 93 91 90 90 88 86 86 85 82 79 80 85 91 89 81 75 74 78 83 88 89 90 92 95 96 96 94 91 89 88 89 91 94 99 103 103 102 101 99 98 97 96 95 94 93 92 91 90 88 87 86 87 90 90
101 101 101 103 104 102 102 101 98 95 94 93 93 93 94 95 95 92 87 84 88 93 92 84 78 77 79 82 87 88 88 89 90 89 89 89 88 89 92 94 95 96 97 98 101 102 102 100 100 100 100 98 97 98 94 89 88 91 92 90 91 93 93
103 104 103 103 104 104 104 104 99 94 95 98 100 100 100 100 101 99 95 90 90 94 95 91 87 86 86 87 89 91 92 91 91 92 93 94 94 95 96 94 92 90 88 88 93 98 101 101 101 101 101 100 101 99 92 86 89 96 97 94 93 94 92
99 102 103 104 104 103 102 103 101 98 98 99 99 100 101 101 101 101 101 98 96 96 98 98 96 95 93 93 95 98 98 96 96 96 95 93 92 92 90 88 86 85 85 86 90 94 98 101 103 103 102 103 102 97 88 86 92 96 96 92 91 90 87
93 97 99 101 103 103 102 100 98 95 92 90 90 95 100 103 102 101 101 101 101 101 102 101 101 100 98 98 100 101 99 97 97 98 96 94 93 91 90 91 89 86 85 87 91 94 97 100 103 104 103 102 102 99 94 94 96 94 91 89 91 93 91
94 98 99 98 98 100 100 97 94 91 90 92 94 98 100 101 101 101 101 100 100 102 102 101 101 101 100 101 101 100 98 97 97 97 96 96 97 96 95 94 91 87 86 89 92 94 96 98 99 101 101 99 100 102 101 99 96 90 87 89 93 98 99
89 94 96 96 95 96 97 96 95 95 94 92 94 96 99 100 101 100 100 100 100 102 102 101 102 102 101 101 100 98 96 97 97 97 97 98 98 98 96 93 91 91 91 92 92 93 94 95 95 96 99 99 99 99 98 95 91 89 92 97 101 102 100
87 88 91 93 92 91 92 92 91 92 90 86 86 88 90 95 100 101 100 100 101 102 101 100 101 101 101 100 99 98 98 98 98 98 99 100 99 99 98 96 94 95 95 93 92 92 93 93 94 96 100 100 96 93 93 94 95 96 99 101 101 99 96
92 88 88 91 90 90 91 90 89 88 86 84 84 82 83 92 101 103 101 100 100 100 101 101 100 100 100 99 98 98 98 99 99 99 100 100 100 100 99 98 97 97 96 93 92 92 91 91 92 94 95 93 88 87 90 94 96 97 98 97 97 96 96
97 91 88 88 90 91 91 91 89 88 86 85 84 82 85 97 105 103 100 100 100 99 100 101 101 100 100 100 100 100 99 99 100 100 99 100 101 101 101 100 99 98 96 94 93 92 90 90 91 91 89 87 85 85 89 92 93 94 94 94 95 96 96
Wind_Speed
11 11 11 12 12 12 12 12 12 12 12 12 11 11 11 12 12 11 11 11 11 11 11 12 12 12 12 11 11 10 10 9 8 8 8 8 7 7 6 7 7 6 5 8 10 11 13 13 13 12 11 9 8 6 6 7 7 7 8 8 7 7 6
10 11 11 11 11 11 11 11 11 11 11 11 11 11 11 12 12 12 12 13 13 13 13 12 12 12 12 13 13 12 12 12 11 10 9 9 8 8 7 6 6 5 4 5 7 8 9 9 8 8 7 6 6 6 6 7 8 9 9 9 9 8 7
10 11 11 11 11 11 11 11 11 11 11 11 11 12 12 11 11 11 12 12 13 14 14 14 14 13 13 13 13 13 12 13 13 12 11 11 10 10 10 9 7 5 4 4 5 5 5 5 5 4 4 4 4 5 6 6 7 7 8 9 9 9 8
11 11 12 12 12 12 12 12 12 11 11 11 11 11 12 12 12 11 11 12 12 13 14 14 14 14 14 14 13 13 12 12 12 12 12 12 12 11 12 12 11 9 6 5 5 6 6 6 6 5 5 5 5 6 6 6 6 6 6 6 7 8 8
12 12 13 13 13 13 13 13 13 13 12 11 11 11 11 12 12 12 12 12 12 12 13 13 14 14 14 14 13 13 13 12 12 12 12 12 12 12 12 13 13 12 11 9 8 9 10 9 9 9 9 8 8 9 10 10 9 9 8 8 7 7 7
12 12 13 14 14 14 14 13 13 14 13 12 12 12 12 12 13 14 14 13 13 13 13 13 14 14 14 13 13 13 13 13 13 12 12 12 13 13 13 13 13 13 12 12 12 11 12 13 12 12 12 12 12 12 13 14 14 14 13 12 12 11 10
12 12 13 14 14 14 15 15 14 14 14 14 14 13 13 13 14 15 15 15 15 14 14 14 14 15 14 14 13 13 13 13 13 13 13 12 13 13 14 14 13 13 13 12 12 11 11 13 13 13 14 15 15 15 15 15 15 15 15 14 13 14 13
14 14 14 14 14 14 15 15 15 15 15 15 15 15 14 15 15 16 16 16 16 16 15 15 15 15 14 14 13 13 13 13 13 13 14 14 13 13 13 13 13 13 13 12 11 10 10 10 11 11 11 12 13 13 12 10 9 8 9 9 8 8 8
16 16 16 16 15 15 15 16 16 16 15 16 17 16 16 16 17 18 18 18 18 18 17 16 16 15 15 15 15 14 14 14 14 14 15 15 14 13 12 12 12 12 12 12 11 10 9 8 7 8 8 8 7 6 5 5 5 4 3 4 3 2 3
17 18 17 17 17 16 16 16 16 17 17 17 17 17 17 18 18 19 19 19 20 20 19 18 17 16 15 16 17 17 16 16 16 16 15 13 13 12 11 12 12 11 11 11 10 9 8 7 6 7 7 7 6 5 6 6 5 4 4 4 3 1 1
19 19 19 19 18 17 17 17 17 18 18 18 17 16 17 18 19 19 20 20 21 21 21 21 19 17 15 16 17 18 18 18 19 18 15 13 12 12 12 11 12 12 11 10 10 9 8 8 7 7 7 8 9 9 8 6 5 5 4 4 2 1 1
21 21 21 20 20 20 19 19 19 18 19 19 17 17 18 19 19 20 20 21 21 21 21 22 21 19 18 18 18 19 20 20 20 19 16 15 15 15 14 12 11 11 10 10 10 10 9 8 8 8 8 8 9 9 8 7 6 5 4 3 2 3 3
23 23 23 23 23 23 22 22 21 21 20 20 19 18 18 20 20 20 20 21 21 22 22 23 24 23 23 21 20 20 21 21 20 19 18 17 17 17 17 15 14 13 12 12 11 10 9 9 8 7 6 6 7 9 10 10 9 7 6 5 5 6 7
26 26 26 26 26 26 26 25 24 23 22 22 21 20 20 21 21 21 21 21 22 23 24 25 25 26 25 24 22 22 21 21 20 19 19 17 17 17 18 18 17 16 16 15 14 13 13 12 11 11 9 8 8 9 10 11 11 11 10 9 9 10 11
27 28 28 28 28 29 30 28 27 26 25 23 22 21 22 23 23 23 23 23 23 24 25 26 26 26 25 24 23 22 21 20 19 19 18 17 16 16 17 17 18 17 16 16 15 15 16 16 16 17 16 15 14 14 14 14 14 14 14 14 15 15 14
29 29 30 30 29 30 31 30 28 27 27 25 23 23 24 25 26 26 26 25 25 25 26 26 26 26 26 24 24 23 21 20 19 18 17 16 16 16 17 18 18 17 16 16 14 14 15 15 15 15 15 15 15 15 15 15 15 15 15 15 14 14 14
30 29 29 30 29 29 31 31 30 29 29 27 24 24 25 27 28 28 28 27 27 26 27 27 27 27 26 25 24 23 22 20 19 18 17 17 17 18 20 22 20 17 16 16 14 14 14 14 15 15 14 13 12 12 12 12 12 13 13 12 9 8 11
28 28 27 27 27 27 29 31 31 29 29 28 26 24 26 27 29 29 29 28 28 28 28 28 28 26 26 25 24 23 22 19 18 18 17 17 18 19 21 24 21 18 17 16 15 15 15 16 17 18 18 18 17 17 16 13 12 11 11 11 9 8 11
26 27 26 25 25 25 26 29 30 29 29 29 28 26 26 27 28 28 28 28 29 30 29 29 27 25 24 24 23 21 21 19 18 18 17 17 18 18 21 23 21 19 19 19 18 18 16 15 14 14 15 16 17 18 17 16 15 14 13 13 11 10 9
23 24 25 23 23 24 25 27 29 29 28 28 27 25 25 26 27 27 28 28 28 29 29 28 27 25 24 23 22 20 19 18 17 16 16 17 17 19 21 22 20 18 18 19 20 19 18 17 15 14 14 15 16 17 17 17 17 17 17 17 15 13 11
21 22 23 23 22 24 25 25 27 27 25 24 24 23 24 26 27 27 28 28 27 27 27 27 27 25 23 22 21 20 19 17 16 15 16 17 18 19 21 21 20 19 18 17 19 20 20 19 18 17 17 17 18 18 18 18 18 17 17 18 18 18 17
21 22 23 23 23 24 24 24 24 24 23 22 22 22 22 24 26 26 26 26 25 24 25 25 25 24 22 21 20 19 18 16 15 16 16 17 17 17 17 16 17 18 18 18 18 19 20 20 20 20 20 20 21 22 21 20 18 16 15 16 17 18 19
20 21 23 24 24 24 24 24 23 23 23 22 22 21 21 22 23 23 24 25 24 24 24 24 24 23 21 20 18 18 17 16 16 17 17 17 16 16 15 14 14 16 18 18 19 19 20 22 21 21 21 22 23 22 21 18 16 15 15 16 16 17 18
20 21 22 23 24 23 23 23 23 23 22 21 21 21 21 22 22 22 23 24 24 24 24 23 23 22 21 19 17 16 16 16 16 16 15 15 15 15 15 15 16 17 18 19 20 20 21 23 23 22 21 21 21 20 20 20 18 16 15 16 16 15 15
20 20 21 21 22 22 22 22 22 23 22 21 20 21 21 21 21 21 22 23 24 24 22 21 21 20 18 15 14 14 15 15 15 15 15 16 16 16 16 16 16 17 18 19 20 21 22 24 24 22 22 22 21 21 21 20 18 16 14 14 14 14 14
20 19 20 21 22 22 23 23 23 24 24 23 22 22 22 22 22 21 21 21 22 22 21 20 20 20 17 16 15 15 15 16 16 16 16 17 18 19 19 19 19 19 19 20 21 22 23 24 24 23 23 23 22 22 21 18 17 16 15 14 13 13 14
20 20 20 21 22 23 23 24 24 25 25 24 22 22 21 21 22 21 20 21 21 21 20 20 19 19 18 17 16 16 16 16 17 17 18 18 19 19 20 20 20 20 21 22 22 23 24 24 24 23 23 22 21 21 20 17 17 18 17 15 14 13 14
21 21 21 22 23 23 23 23 24 25 25 22 21 21 20 19 20 20 19 19 19 20 21 20 19 18 18 17 18 18 18 19 20 20 20 21 21 21 21 21 21 21 23 24 24 24 25 25 25 24 23 22 21 21 20 18 18 18 16 15 13 12 12
24 23 23 24 24 23 22 23 24 26 25 23 22 21 21 21 21 21 21 20 19 19 19 19 19 19 19 19 19 20 21 22 22 23 23 23 24 24 24 24 25 25 26 26 25 25 25 25 25 24 24 22 21 21 20 18 16 16 15 14 13 13 14
26 25 25 26 27 26 25 26 28 28 27 26 25 24 23 22 22 21 22 21 19 17 17 18 19 19 19 20 20 21 22 23 23 23 24 25 25 25 25 25 25 26 26 25 25 25 25 24 24 23 23 21 21 21 20 18 17 17 17 17 17 16 17
24 25 25 26 28 28 27 28 30 29 28 27 26 24 23 21 20 20 20 19 18 17 17 18 19 20 20 21 21 22 24 24 23 22 23 24 24 24 24 24 25 25 24 24 24 24 24 24 23 23 23 22 22 21 20 19 18 17 18 18 17 17 17
24 24 24 25 26 27 28 28 28 28 27 26 24 23 22 20 19 19 18 16 16 18 19 20 20 20 21 21 21 23 24 24 23 23 24 23 23 24 24 24 24 24 23 23 23 24 24 24 24 24 24 23 22 21 20 19 18 17 17 17 17 16 17
24 23 23 24 24 25 26 27 27 26 26 26 24 23 21 20 19 19 17 15 16 18 20 20 21 22 22 22 23 24 25 24 24 24 24 24 24 25 25 25 25 24 23 23 24 24 24 24 24 24 23 23 22 20 19 19 18 17 17 16 16 16 16
25 25 23 23 24 25 25 26 27 26 26 26 25 23 21 20 20 20 19 18 19 20 21 21 22 23 23 24 24 25 25 24 25 24 24 24 25 25 26 26 25 24 24 24 24 24 24 24 24 24 23 22 21 20 19 19 19 17 16 16 16 16 16
28 29 28 27 27 27 27 27 27 26 25 24 23 23 21 21 20 20 21 21 22 23 24 24 23 24 24 25 25 25 25 25 25 25 24 25 25 25 25 25 24 24 24 24 24 24 24 24 24 24 23 22 21 20 19 19 19 18 18 17 17 17 17
29 32 33 32 30 28 26 25 24 24 23 23 23 22 21 20 20 20 21 22 25 26 26 26 26 26 26 26 26 26 26 26 26 26 26 26 26 25 25 25 25 24 24 24 24 24 24 23 24 24 23 22 20 20 20 20 20 19 19 18 18 17 18
Wind_Direction
358 358 357 354 352 349 346 344 341 340 338 334 333 334 333 333 333 333 333 330 325 324 325 324 322 321 320 319 318 313 311 307 301 297 293 291 293 288 289 304 303 292 294 295 282 271 269 272 277 282 287 291 292 289 288 291 294 295 295 298 297 292 285
354 354 353 351 349 346 342 341 340 339 338 334 331 329 330 330 330 329 328 329 328 328 328 327 324 323 321 320 319 317 316 315 313 310 307 304 306 303 296 302 311 302 293 298 297 290 286 283 281 281 281 281 280 274 273 279 288 294 296 297 300 302 304
351 350 349 347 344 341 339 339 340 339 338 336 332 330 328 327 327 327 326 326 326 326 326 325 325 325 325 324 322 321 321 320 318 315 312 309 309 310 306 305 311 308 288 291 300 300 299 300 298 291 284 283 282 279 280 280 284 292 296 298 302 302 302
347 345 342 341 338 337 337 336 336 337 335 333 330 327 325 323 322 320 319 320 321 322 322 322 323 324 326 326 323 322 323 322 322 322 320 316 312 311 308 306 307 305 296 289 285 281 285 291 294 293 291 294 292 286 286 286 284 289 292 296 305 307 306
342 340 336 335 334 333 334 333 332 331 330 328 324 320 317 315 313 311 310 310 310 312 314 314 315 317 321 324 324 323 322 321 322 323 323 322 319 316 314 309 306 304 297 288 281 282 285 284 284 285 286 291 298 297 293 288 284 285 285 285 289 297 308
335 333 330 329 329 329 329 328 326 325 325 323 318 313 309 305 305 305 305 305 306 306 307 307 309 310 310 314 316 317 318 317 318 318 318 319 319 318 317 314 311 309 304 293 283 283 286 287 289 288 285 286 294 300 301 297 292 290 290 290 287 285 288
327 325 324 323 323 324 323 322 322 321 320 319 317 313 307 302 300 300 300 302 303 304 304 305 307 308 307 306 305 305 307 310 314 315 314 315 314 313 313 313 310 309 309 305 294 286 284 287 292 292 290 289 291 294 298 299 298 296 296 297 295 291 287
326 322 320 320 318 317 317 316 317 318 316 315 315 313 309 305 303 303 302 301 300 299 300 301 304 307 306 304 300 298 300 303 307 310 308 307 309 310 310 310 308 305 305 307 303 296 291 290 293 298 301 301 297 294 295 296 297 301 304 304 301 296 287
327 324 320 316 313 312 311 311 312 315 313 312 312 313 312 310 307 306 305 303 300 298 297 299 301 302 302 300 296 295 297 299 302 304 303 301 301 305 305 305 306 304 300 299 297 295 295 291 289 295 306 311 306 301 303 303 301 308 322 323 313 300 284
325 326 323 318 314 311 310 310 312 313 311 311 311 310 308 304 301 301 302 303 301 299 299 299 299 299 297 295 293 293 296 298 302 303 300 295 294 296 298 300 301 300 297 293 288 287 290 288 279 281 290 293 292 299 309 312 314 314 321 330 317 280 288
320 321 322 320 316 313 312 312 313 313 312 312 307 302 301 299 298 298 297 298 299 299 299 299 299 298 294 290 289 290 292 295 300 302 298 289 284 283 285 290 298 301 299 293 286 283 282 280 277 275 277 280 285 295 303 305 310 314 318 335 326 239 281
314 314 315 316 313 312 312 312 313 313 313 312 307 300 299 298 297 296 294 293 294 294 294 295 297 296 291 287 286 287 289 292 297 300 296 288 284 282 280 279 282 292 299 298 293 289 284 283 284 282 279 283 287 290 294 295 299 304 304 304 274 249 268
310 308 310 310 309 309 308 308 310 312 312 311 307 301 298 297 296 293 291 290 289 289 290 292 294 295 293 290 288 287 289 292 296 298 296 289 282 278 278 277 274 274 277 284 290 292 287 285 295 297 286 283 287 285 287 292 294 298 295 285 277 270 274
308 307 307 307 307 307 306 305 306 308 309 308 305 301 298 295 294 292 289 287 285 285 287 289 292 294 294 293 290 288 290 293 296 300 300 295 285 277 277 278 277 274 271 273 279 285 283 279 283 288 281 276 286 290 289 288 288 291 292 289 287 283 282
305 305 305 305 305 304 302 302 303 304 305 303 300 299 298 295 292 290 288 286 285 284 286 288 291 292 292 291 289 289 291 293 297 301 302 298 291 285 283 280 279 279 278 279 280 283 286 285 284 286 283 280 283 286 285 283 282 284 287 290 290 286 286
300 301 301 301 302 300 299 299 301 301 302 301 297 296 296 294 291 289 287 287 287 288 288 290 292 293 292 290 287 286 288 291 296 299 298 295 291 291 290 287 284 282 282 286 288 288 291 293 291 290 289 288 288 286 282 279 278 280 282 286 288 285 285
298 298 298 298 298 298 297 297 298 299 301 300 296 293 293 292 290 289 287 287 288 289 289 291 293 294 293 292 288 285 286 288 291 293 293 291 291 293 293 291 290 290 288 290 292 287 281 278 275 272 272 274 275 278 281 280 278 279 278 278 279 277 279
299 298 298 298 297 296 295 294 296 298 299 298 296 293 291 290 288 286 285 286 288 289 289 289 292 292 292 293 292 288 286 287 287 287 287 288 288 290 291 292 295 300 300 299 296 291 285 278 272 268 267 266 263 265 274 281 281 280 278 274 271 273 282
300 298 298 297 295 294 293 293 295 295 295 296 295 293 289 287 286 284 283 285 287 288 289 289 290 291 290 292 293 290 287 286 285 283 284 284 281 279 282 289 296 301 303 303 302 301 300 295 285 274 270 268 263 262 266 274 279 279 279 278 274 274 280
299 297 297 296 295 294 293 293 294 296 297 297 297 294 290 286 283 281 282 283 284 286 288 290 291 291 291 292 293 290 286 284 281 279 280 279 273 270 277 287 293 295 297 300 302 304 306 305 299 288 277 272 269 266 264 267 274 277 277 275 272 267 264
298 296 295 295 295 295 295 295 296 298 301 301 300 298 294 288 283 282 282 282 283 283 285 288 290 292 294 294 293 290 286 282 277 275 275 276 275 275 279 282 284 288 292 293 296 300 302 302 300 295 289 284 280 279 277 275 277 276 273 270 267 263 259
298 295 294 295 294 295 295 297 299 300 302 302 301 300 297 292 290 289 286 282 280 280 283 286 290 293 295 295 293 290 286 280 277 275 273 272 275 279 279 274 274 282 285 285 290 294 295 294 293 290 288 286 285 286 289 289 285 279 272 269 268 265 260
297 295 293 293 293 293 295 296 298 299 300 303 303 301 299 295 293 294 291 283 277 277 282 286 290 293 295 293 290 287 284 280 278 278 276 274 273 274 275 273 273 275 277 281 287 288 287 286 285 284 284 284 286 290 294 296 294 286 278 274 272 271 269
294 292 291 291 291 292 293 295 297 297 298 300 302 303 301 297 293 294 293 288 281 279 281 284 287 290 292 290 286 283 282 281 279 277 277 276 273 270 269 271 273 273 276 281 282 280 279 280 281 282 283 285 289 293 295 296 294 288 281 276 273 273 274
291 289 288 288 289 290 292 294 295 295 295 296 298 299 299 297 295 294 294 291 286 281 278 280 284 288 287 281 278 280 281 281 278 274 272 270 269 269 268 268 270 272 275 275 275 275 276 277 279 281 284 288 290 291 291 291 290 286 281 278 277 274 271
288 288 288 287 287 289 291 292 292 292 293 294 295 295 295 295 296 296 295 294 289 280 274 274 278 282 280 275 276 281 284 284 282 279 275 270 269 269 269 268 270 273 273 272 274 275 275 277 281 284 286 289 290 289 289 290 290 289 286 283 283 280 273
286 286 286 286 287 288 289 291 292 292 294 296 297 298 296 295 294 294 294 295 289 278 271 271 275 277 276 274 274 276 279 281 280 279 277 275 274 273 272 272 273 273 272 271 271 274 276 280 284 285 285 285 286 286 288 288 288 288 288 287 286 282 275
284 283 283 283 285 288 289 289 290 291 294 298 299 299 298 296 294 294 294 295 292 281 272 270 272 271 268 266 267 269 272 274 275 274 274 273 273 272 272 273 273 272 271 270 270 271 274 277 279 280 279 279 279 280 282 284 284 283 281 281 280 275 273
282 281 282 282 281 284 285 285 286 290 295 297 295 292 291 289 288 289 290 293 295 288 277 269 266 264 262 262 264 267 270 271 271 270 269 267 268 269 270 272 273 273 272 272 271 270 270 272 274 275 275 274 273 275 279 280 278 276 275 274 273 271 272
281 281 282 281 280 280 279 280 285 290 293 294 292 289 286 283 281 282 283 284 286 282 271 264 262 260 260 261 262 263 266 269 270 269 268 269 269 270 272 273 273 274 274 274 272 270 269 269 268 269 270 270 269 272 277 277 272 270 272 273 272 270 270
284 283 281 280 280 281 280 281 284 288 290 292 293 292 288 281 277 277 277 276 273 266 257 252 253 255 257 258 259 260 263 266 267 267 268 270 272 273 272 271 270 272 274 273 271 269 268 266 264 263 264 265 266 269 272 271 268 267 269 269 267 263 263
288 283 281 280 280 281 282 283 285 287 289 290 291 291 288 281 274 273 274 273 269 263 258 253 251 253 255 256 257 259 262 264 264 264 266 268 269 270 270 269 270 272 273 271 269 268 267 265 263 262 261 262 263 264 265 264 264 265 267 268 265 259 258
293 288 285 283 282 281 282 283 284 285 287 288 288 288 286 281 274 269 267 265 262 259 259 257 254 255 256 257 257 259 262 263 263 264 265 265 265 267 269 271 273 274 272 269 268 267 266 265 264 261 259 258 258 259 260 261 262 263 263 261 258 254 253
297 295 291 288 287 286 284 284 285 286 286 288 288 288 287 284 277 268 261 256 253 253 255 256 256 256 257 257 258 259 261 262 263 264 264 264 265 267 269 272 273 271 268 268 268 266 264 264 263 259 254 252 253 256 258 259 258 256 252 248 248 250 251
297 297 296 294 293 292 289 288 288 288 288 288 288 288 289 286 277 266 258 252 249 250 252 253 254 255 257 258 259 260 260 261 263 264 264 264 265 266 268 270 270 268 267 268 267 266 265 263 261 256 251 249 251 254 255 254 252 250 247 245 246 248 250
293 296 298 297 295 294 292 291 289 289 289 288 288 289 288 279 269 262 257 253 251 252 253 253 254 255 257 259 260 261 262 262 263 264 265 265 266 266 266 267 267 266 267 266 265 266 266 263 258 253 249 248 250 252 252 251 251 250 249 248 248 248 250